Time,TemperatureF,DewpointF,PressureIn,WindDirection,WindDirectionDegrees,WindSpeedMPH,WindSpeedGustMPH,Humidity,HourlyPrecipIn,Conditions,Clouds,dailyrainin,SoftwareType,DateUTC
2013-07-15 00:01:00,73.0,72.0,30.30,North,0,0.0,-999.0,94,-99.99,,,-99.99,,2013-07-15 04:01:00,
2013-07-15 00:22:00,73.0,70.0,30.30,North,0,0.0,-999.0,88,-99.99,,,-99.99,,2013-07-15 04:22:00,
2013-07-15 00:32:00,73.0,70.0,30.29,North,0,0.0,-999.0,88,-99.99,,,-99.99,,2013-07-15 04:32:00,
2013-07-15 00:42:00,73.0,70.0,30.29,North,0,0.0,-999.0,88,-99.99,,,-99.99,,2013-07-15 04:42:00,
2013-07-15 00:53:00,72.0,70.0,30.29,North,0,0.0,-999.0,94,-99.99,,,-99.99,,2013-07-15 04:53:00,
2013-07-15 01:02:00,72.0,70.0,30.29,North,0,0.0,-999.0,94,-99.99,,,-99.99,,2013-07-15 05:02:00,
2013-07-15 01:32:00,72.0,70.0,30.29,North,0,0.0,-999.0,94,-99.99,,,-99.99,,2013-07-15 05:32:00,
2013-07-15 01:43:00,72.0,70.0,30.29,North,0,0.0,-999.0,94,-99.99,,,-99.99,,2013-07-15 05:43:00,
2013-07-15 01:53:00,72.0,70.0,30.29,North,0,0.0,-999.0,94,-99.99,,,-99.99,,2013-07-15 05:53:00,
2013-07-15 02:02:00,72.0,70.0,30.29,North,0,0.0,-999.0,94,-99.99,,,-99.99,,2013-07-15 06:02:00,
2013-07-15 02:12:00,72.0,70.0,30.29,North,0,0.0,-999.0,94,-99.99,,,-99.99,,2013-07-15 06:12:00,
2013-07-15 02:32:00,72.0,70.0,30.29,North,0,0.0,-999.0,94,-99.99,,,-99.99,,2013-07-15 06:32:00,
2013-07-15 02:42:00,72.0,70.0,30.29,North,0,0.0,-999.0,94,-99.99,,,-99.99,,2013-07-15 06:42:00,
2013-07-15 03:44:00,72.0,70.0,30.29,North,0,0.0,-999.0,94,-99.99,,,-99.99,,2013-07-15 07:44:00,
2013-07-15 03:53:00,72.0,70.0,30.29,North,0,0.0,-999.0,94,-99.99,,,-99.99,,2013-07-15 07:53:00,
2013-07-15 04:02:00,72.0,70.0,30.29,North,0,0.0,-999.0,94,-99.99,,,-99.99,,2013-07-15 08:02:00,
2013-07-15 04:22:00,72.0,70.0,30.29,North,0,0.0,-999.0,94,-99.99,,,-99.99,,2013-07-15 08:22:00,
2013-07-15 04:43:00,72.0,70.0,30.29,North,0,0.0,-999.0,94,-99.99,,,-99.99,,2013-07-15 08:43:00,
2013-07-15 05:02:00,72.0,70.0,30.29,North,0,0.0,-999.0,94,-99.99,,,-99.99,,2013-07-15 09:02:00,
2013-07-15 05:12:00,72.0,70.0,30.29,North,0,0.0,-999.0,94,-99.99,,,-99.99,,2013-07-15 09:12:00,
2013-07-15 05:43:00,70.0,68.0,30.30,North,0,0.0,-999.0,94,-99.99,,,-99.99,,2013-07-15 09:43:00,
2013-07-15 05:52:00,70.0,68.0,30.30,North,0,0.0,-999.0,94,-99.99,,,-99.99,,2013-07-15 09:52:00,
2013-07-15 06:02:00,70.0,68.0,30.30,North,0,0.0,-999.0,94,-99.99,,,-99.99,,2013-07-15 10:02:00,
2013-07-15 06:32:00,72.0,70.0,30.31,North,0,0.0,-999.0,94,-99.99,,,-99.99,,2013-07-15 10:32:00,
2013-07-15 06:43:00,72.0,70.0,30.31,North,0,0.0,-999.0,94,-99.99,,,-99.99,,2013-07-15 10:43:00,
2013-07-15 06:53:00,72.0,70.0,30.31,North,0,0.0,-999.0,94,-99.99,,,-99.99,,2013-07-15 10:53:00,
2013-07-15 07:02:00,72.0,70.0,30.31,North,0,0.0,-999.0,94,-99.99,,,-99.99,,2013-07-15 11:02:00,
2013-07-15 07:11:00,72.0,70.0,30.31,North,0,0.0,-999.0,94,-99.99,,,-99.99,,2013-07-15 11:11:00,
2013-07-15 07:32:00,73.0,70.0,30.32,North,0,0.0,-999.0,88,-99.99,,,-99.99,,2013-07-15 11:32:00,
2013-07-15 07:42:00,73.0,70.0,30.32,North,0,0.0,-999.0,88,-99.99,,,-99.99,,2013-07-15 11:42:00,
2013-07-15 08:01:00,75.0,70.0,30.32,North,0,0.0,-999.0,83,-99.99,,,-99.99,,2013-07-15 12:01:00,
2013-07-15 08:22:00,77.0,70.0,30.32,North,0,0.0,-999.0,78,-99.99,,,-99.99,,2013-07-15 12:22:00,
2013-07-15 08:32:00,79.0,70.0,30.32,North,10,5.0,-999.0,73,-99.99,,,-99.99,,2013-07-15 12:32:00,
2013-07-15 08:42:00,79.0,68.0,30.32,North,360,3.0,-999.0,69,-99.99,,,-99.99,,2013-07-15 12:42:00,
2013-07-15 08:52:00,79.0,68.0,30.32,North,10,3.0,-999.0,69,-99.99,,,-99.99,,2013-07-15 12:52:00,
2013-07-15 10:11:00,82.0,68.0,30.31,NNW,340,6.0,-999.0,61,-99.99,,,-99.99,,2013-07-15 14:11:00,
2013-07-15 11:18:00,84.0,70.0,30.31,North,360,8.0,-999.0,62,-99.99,,,-99.99,,2013-07-15 15:18:00,
2013-07-15 12:46:00,84.0,66.0,30.30,North,350,7.0,-999.0,54,-99.99,,,-99.99,,2013-07-15 16:46:00,
2013-07-15 14:45:00,86.0,70.0,30.28,North,360,6.0,-999.0,58,-99.99,,,-99.99,,2013-07-15 18:45:00,
2013-07-15 15:12:00,88.0,68.0,30.28,NNW,340,7.0,-999.0,51,-99.99,,,-99.99,,2013-07-15 19:12:00,
2013-07-15 15:37:00,88.0,66.0,30.27,NNW,340,8.0,-999.0,48,-99.99,,,-99.99,,2013-07-15 19:37:00,
2013-07-15 17:03:00,88.0,66.0,30.25,NNW,330,7.0,-999.0,48,-99.99,,,-99.99,,2013-07-15 21:03:00,
2013-07-15 17:48:00,86.0,68.0,30.25,NNW,340,8.0,-999.0,55,-99.99,,,-99.99,,2013-07-15 21:48:00,
2013-07-15 18:43:00,84.0,68.0,30.24,North,10,10.0,-999.0,58,-99.99,,,-99.99,,2013-07-15 22:43:00,
2013-07-15 19:06:00,84.0,68.0,30.25,North,360,9.0,-999.0,58,-99.99,,,-99.99,,2013-07-15 23:06:00,
2013-07-15 19:53:00,82.0,66.0,30.25,NNW,330,5.0,-999.0,58,-99.99,,,-99.99,,2013-07-15 23:53:00,
2013-07-15 20:03:00,82.0,66.0,30.25,NNW,330,5.0,-999.0,58,-99.99,,,-99.99,,2013-07-16 00:03:00,
2013-07-15 20:16:00,82.0,66.0,30.25,NNW,330,5.0,-999.0,58,-99.99,,,-99.99,,2013-07-16 00:16:00,
2013-07-15 22:11:00,72.0,66.0,30.27,North,0,0.0,-999.0,83,-99.99,,,-99.99,,2013-07-16 02:11:00,